Regional Weather Roundup
Issued by NWS

Home | Current Version | Previous Version | Text Only | Print | Product List | Glossary On
Versions: 1 2 3 4 5 6 7 8 9 10 11 12 13 14 15 16 17 18 19 20 21 22 23 24 25 26 27 28 29 30 31 32 33 34 35 36 37 38 39 40 41 42 43 44 45 46 47 48 49 50
000
ASUS44 KBMX 241210
RWRAL

ALABAMA REGIONAL WEATHER ROUNDUP
NATIONAL WEATHER SERVICE BIRMINGHAM AL
700 AM CDT MON JUL 24 2017

NOTE: "FAIR" INDICATES FEW OR NO CLOUDS BELOW 12,000 FEET
WITH NO SIGNIFICANT WEATHER AND/OR OBSTRUCTIONS TO VISIBILITY.

THE REMARK "TC" DENOTES TEMPERATURE IN DEGREES CELSIUS.

ALZ001>011-014-016>018-020-241300-
NORTH ALABAMA

CITY           SKY/WX    TMP DP  RH WIND       PRES   REMARKS
MUSCLE SHOALS  CLOUDY    74  69  85 SW7       29.96S
6HR MIN TEMP:  72; 6HR MAX TEMP:  80;

HUNTSVILLE     CLOUDY    75  74  96 N3        29.95R
6HR MIN TEMP:  73; 6HR MAX TEMP:  80; 6HR PCP:  0.33;

DECATUR        CLOUDY    73  36  25 CALM      29.95R
6HR MIN TEMP:  70; 6HR MAX TEMP:  80; 6HR PCP:  0.72;

HALEYVILLE     NOT AVBL
GADSDEN        CLOUDY    74  73  97 VRB3      29.95F
6HR MIN TEMP:  72; 6HR MAX TEMP:  75;

$$

ALZ012-013-022-023-030>036-040>044-241300-
WEST CENTRAL ALABAMA

CITY           SKY/WX    TMP DP  RH WIND       PRES   REMARKS
TUSCALOOSA     PTSUNNY   75  75 100 S5        29.97R
6HR MIN TEMP:  74; 6HR MAX TEMP:  77;

DEMOPOLIS        N/A     74  74  98 S3        29.97S
$$

ALZ015-024>026-033>036-041>044-241300-
CENTRAL ALABAMA

CITY           SKY/WX    TMP DP  RH WIND       PRES   REMARKS
BIRMINGHAM     PTSUNNY   77  74  90 SW5       29.99S
6HR MIN TEMP:  76; 6HR MAX TEMP:  80;

MONTGOMERY     SUNNY     76  72  87 CALM      29.97S
6HR MIN TEMP:  75; 6HR MAX TEMP:  78;

SHELBY CO ARPT FOG       74  74 100 CALM      29.98R VSB 1
6HR MIN TEMP:  74; 6HR MAX TEMP:  78;

MAXWELL AFB    SUNNY     75  74  95 CALM      29.97R
6HR MIN TEMP:  74; 6HR MAX TEMP:  77;

GREENVILLE     CLOUDY    74  71  91 W7        29.98S FOG
6HR MIN TEMP:  74; 6HR MAX TEMP:  76;

SELMA          CLOUDY    75  72  88 SW5       29.97S
PRATTVILLE     FAIR      73  73 100 CALM      29.97R
6HR MIN TEMP:  72; 6HR MAX TEMP:  74;

BESSEMER       CLOUDY    73  73 100 CALM      29.99R FOG
6HR MIN TEMP:  73; 6HR MAX TEMP:  76;

TALLADEGA      FAIR      75  73  96 CALM      29.98R
6HR MIN TEMP:  73; 6HR MAX TEMP:  76;

PELL CITY      MOSUNNY   75  75 100 CALM      29.97S
MARION         NOT AVBL
SYLACAUGA      CLOUDY    75  75 100 CALM      29.99R
6HR MIN TEMP:  73; 6HR MAX TEMP:  76;

$$

ALZ019-021-028-029-037-038-045>048-241300-
EAST CENTRAL ALABAMA

CITY           SKY/WX    TMP DP  RH WIND       PRES   REMARKS
ANNISTON       MOSUNNY   76  72  87 NW5       29.98R
6HR MIN TEMP:  73; 6HR MAX TEMP:  76;

ALEXANDER CITY MOSUNNY   74  72  95 CALM      29.99R
6HR MIN TEMP:  72; 6HR MAX TEMP:  74;

AUBURN         MOSUNNY   75  73  93 CALM      30.00S
6HR MIN TEMP:  74; 6HR MAX TEMP:  76;

$$

ALZ051>064-241300-
SOUTHWEST ALABAMA

CITY           SKY/WX    TMP DP  RH WIND       PRES   REMARKS
MOBILE         PTSUNNY   75  72  90 VRB3      30.00R
6HR MIN TEMP:  74; 6HR MAX TEMP:  75; 6HR PCP:  0.07;

BROOKLEY FIELD CLOUDY    76  75  97 VRB3      30.00R
6HR MIN TEMP:  75; 6HR MAX TEMP:  78; 6HR PCP:  0.04;

EVERGREEN      PTSUNNY   75  73  93 W3        30.01R
6HR MIN TEMP:  73; 6HR MAX TEMP:  76;

$$

ALZ049-050-065>069-241300-
SOUTHEAST ALABAMA

CITY           SKY/WX    TMP DP  RH WIND       PRES   REMARKS
DOTHAN         SUNNY     76  75  97 W6        30.03R
6HR MIN TEMP:  74; 6HR MAX TEMP:  76;

OZARK          PTSUNNY   74  73  96 SW5       29.99R
6HR MIN TEMP:  73; 6HR MAX TEMP:  75;

TROY           CLOUDY    73  73 100 SW6       29.99S
6HR MIN TEMP:  71; 6HR MAX TEMP:  74;

EUFAULA        FAIR      77  74  90 VRB3      29.98R
6HR MIN TEMP:  75; 6HR MAX TEMP:  78;

$$



USA.gov is the U.S. government's official web portal to all federal, state and local government web resources and services.